Regional Weather Roundup
Issued by NWS

Home | Current Version | Previous Version | Graphics & Text | Print | Product List | Glossary On
Versions: 1 2 3 4 5 6 7 8 9 10 11 12 13 14 15 16 17 18 19 20 21 22 23 24 25 26 27 28 29 30 31 32 33 34 35 36 37 38 39 40 41 42 43 44 45 46 47 48 49 50
000
ASUS43 KLOT 161703
RWRIL

ILLINOIS REGIONAL WEATHER ROUNDUP
NATIONAL WEATHER SERVICE CHICAGO/ROMEOVILLE IL
1200 PM CDT WED AUG 16 2017

NOTE: "FAIR" INDICATES FEW OR NO CLOUDS BELOW 12,000 FEET WITH NO
SIGNIFICANT WEATHER AND/OR OBSTRUCTIONS TO VISIBILITY.

* THESE STATIONS ARE NOT UNDER NWS QUALITY CONTROL. THEY ALSO MAY NOT
  REPORT WEATHER SUCH AS PRECIPITATION OR FOG.

ILZ001-002-007-009-015-016-024-161800-
NORTHWEST ILLINOIS

CITY           SKY/WX    TMP DP  RH WIND       PRES   REMARKS
MOLINE         CLOUDY    84  71  65 SE12G22   29.90F HX  89
STERLING*      SUNNY     84  74  71 SE7       29.94F HX  91
SAVANNA*       SUNNY     84  71  65 SE7       29.93F HX  89
$$

ILZ003-004-008-010-011-017-018-161800-
NORTH CENTRAL ILLINOIS

CITY           SKY/WX    TMP DP  RH WIND       PRES   REMARKS
ROCKFORD       MOSUNNY   85  69  58 SE12      29.97F HX  89
FREEPORT*      SUNNY     80  70  72 SE10      29.97F HX  82
ROCHELLE*      SUNNY     82  72  71 SE9       29.96F HX  86
PERU*          MOSUNNY   82  71  69 SE9       29.96F HX  86
$$

ILZ005-006-012>014-019>023-161800-
NORTHEAST ILLINOIS

CITY           SKY/WX    TMP DP  RH WIND       PRES   REMARKS
CHICAGO-OHARE  MOSUNNY   84  67  56 SE6       29.98F HX  86
CHICAGO-MIDWAY MOSUNNY   87  67  51 SE8       29.97F HX  90
AURORA         SUNNY     85  71  63 E7        29.97F HX  90
LANSING*       MOSUNNY   86  67  54 S7        29.98F HX  88
JOLIET*        SUNNY     86  74  68 SE7       29.97F HX  93
WAUKEGAN       SUNNY     76  68  76 E7        29.99F
DUPAGE AIRPORT SUNNY     85  70  60 MISG      29.97F HX  89
KANKAKEE*      SUNNY     84  72  65 S9        29.99F HX  90
WHEELING       SUNNY     80  69  69 E7        30.00F HX  83
MORRIS*        SUNNY     83  73  71 SE9       29.96F HX  88
NORTHERLY ISL    N/A     77  67  71 NE5         N/A
$$

LMZ740>746-161800-
SOUTHERN LAKE MICHIGAN

STATION/POSITION SKY/WX   TEMP    WIND        PRES    VSBY  WAVE
                          AIR SEA DIR/SP/G                  HT/PER
                          (F)     (DEG/KT/KT) (MB)    (MI)  (FT/S)
SOUTHERN BUOY              71 71   80/  6/  6 1016.4          1
WILMETTE HARBOR            73 73   90/  8/ 10   N/A           1/ 4
HARRISON CRIB              74     100/  6/  6   N/A
CALUMET HARBOR             74      50/  6/  6 1015.3F
BURNS HARBOR               79      CALM  /  6 1016.3S
MICHIGAN CITY              81     310/  2/  5   N/A
MICHIGAN CITY 6N           76 75   50/  4/  6   N/A           1/ 4
ST. JOSEPH                 76 76   40/  2/  4 1015.8F         1/ 4
$$

ILZ025>027-034>036-040-047-049-050-058-095>099-161800-
WEST-CENTRAL ILLINOIS

CITY           SKY/WX    TMP DP  RH WIND       PRES   REMARKS
QUINCY         CLOUDY    80  72  76 S9        29.92S HX  84
GALESBURG*     CLOUDY    80  71  75 SE8       29.92F HX  83
MACOMB*        CLOUDY    77  73  87 S8        29.94F
JACKSONVILLE*  CLOUDY    80  73  79 S8G16     29.95S HX  83
PITTSFIELD*    LGT RAIN  77  75  94 S9        29.95F
$$

ILZ028>032-037-038-041>044-048-051>054-059>061-161800-
CENTRAL ILLINOIS

CITY           SKY/WX    TMP DP  RH WIND       PRES   REMARKS
PONTIAC        PTSUNNY   84  76  75 SE12G17   29.97F HX  92
BLOOMINGTON    PTSUNNY   83  73  72 SE16      29.98F HX  89
DECATUR        PTSUNNY   80  73  79 SE10      29.98F HX  84
PEORIA         CLOUDY    81  73  76 SE10      29.93F HX  86
LACON*         PTSUNNY   83  71  66 SE14      29.93F HX  88
LINCOLN*       CLOUDY    80  73  80 S12G20    29.96S HX  84
SPRINGFIELD    CLOUDY    80  74  81 S13       29.96S HX  85
TAYLORVILLE    CLOUDY    76  73  90 SE7       29.98S
$$

ILZ033-039-045-046-055>057-062-063-161800-
EAST-CENTRAL ILLINOIS

CITY           SKY/WX    TMP DP  RH WIND       PRES   REMARKS
CHAMPAIGN      CLOUDY    83  73  72 S9        29.99F HX  89
RANTOUL*       PTSUNNY   86  73  66 SE10      29.99F HX  93
MATTOON        CLOUDY    82  75  79 S10G20    29.99F HX  89
PARIS*         CLOUDY    83  75  76 SE12      30.01S HX  90
$$

ILZ079-100>102-161800-
SOUTHWEST ILLINOIS

CITY           SKY/WX    TMP DP  RH WIND       PRES   REMARKS
CAHOKIA*       CLOUDY    85  76  74 SE8       29.95F HX  94
SPARTA*        CLOUDY    82  76  82 S7        29.98F HX  88
$$

ILZ064>066-069>071-074>076-080>082-084>086-088>090-092>094-161800-
SOUTH-CENTRAL ILLINOIS

CITY           SKY/WX    TMP DP  RH WIND       PRES   REMARKS
CARBONDALE     CLOUDY    82  78  88 SE7       29.98F HX  91
CAIRO*         CLOUDY    83  78  84 S5        29.99F HX  94
EFFINGHAM*     MOSUNNY   81  73  77 SE8       30.00F HX  85
MARION         CLOUDY    82  82 100 S9        30.00F HX  97
MT. VERNON     CLOUDY    80  75  84 S6        30.00S HX  85
CENTRALIA*     CLOUDY    82  76  83 S9        29.98F HX  90
SALEM*         PTSUNNY   82  73  75 SE7       29.98F HX  87
METROPOLIS*    CLOUDY    85  78  79 SW3       30.01S HX  97
$$

ILZ067-068-072-073-078-083-087-091-161800-
SOUTHEAST ILLINOIS

CITY           SKY/WX    TMP DP  RH WIND       PRES   REMARKS
LAWRENCEVILLE  CLOUDY    82  74  76 S9        30.01F HX  88
FLORA*         CLOUDY    83  75  76 S12       29.99F HX  90
FAIRFIELD*     CLOUDY    79  73  83 CALM      30.00S HX  82
HARRISBURG*    CLOUDY    80  76  89 S7        30.00S HX  85
ROBINSON*      CLOUDY    83  74  75 S7        30.01F HX  89
CARMI*         CLOUDY    81  75  83 S7        30.00S HX  86
$$

ABBREVIATIONS USED IN REMARKS
   TC - TEMPERATURE IN CELSIUS
  WCI - WIND CHILL INDEX
   HX - HEAT INDEX
  VSB - VISIBILITY
$$





USA.gov is the U.S. government's official web portal to all federal, state and local government web resources and services.